Skip Page Navigation
NASA JPL Caltech
NASA Logo - Jet Propulsion Laboratory + View the NASA Portal
+ Center for Near-Earth Object Studies
JPL Home Earth Solar System Stars & Galaxies Technology
JPL Solar System Dynamics
BODIES ORBITS EPHEMERIDES TOOLS PHYSICAL DATA DISCOVERY FAQ SITE MAP
JPL Small-Body Database Browser
Search: [ help ]  
385926 (2006 TE116)
Classification: Main-belt Asteroid          SPK-ID: 2385926
Ephemeris | Orbit Diagram | Orbital Elements | Mission Design | Physical Parameters | Discovery Circumstances | Close-Approach Data ]

[ show orbit diagram ]
Orbital Elements at Epoch 2459200.5 (2020-Dec-17.0) TDB
Reference: JPL 13 (heliocentric ecliptic J2000)
 Element Value Uncertainty (1-sigma)   Units 
e .09641974613333652 6.8003e-08  
a 3.188829007865911 5.0808e-08 au
q 2.88136292446486 2.3798e-07 au
i 8.496808396176373 7.9599e-06 deg
node 122.5751575619019 8.6231e-05 deg
peri 160.7563052744725 0.00011173 deg
M 266.8959438297551 7.163e-05 deg
tp 2459738.412177322291
(2022-Jun-07.91217732)
0.00041414 TDB
period 2079.91350540013
5.69
4.9709e-05
1.361e-07
d
yr
n .1730841205969975 4.1366e-09 deg/d
Q 3.496295091266961 5.5707e-08 au
  Orbit Determination Parameters
   # obs. used (total)      109  
   data-arc span      5784 days (15.84 yr)  
   first obs. used      2005-06-15  
   last obs. used      2021-04-16  
   planetary ephem.      DE441  
   SB-pert. ephem.      SB441-N16  
   condition code      0  
   norm. resid. RMS      .56142  
   source      ORB  
   producer      Otto Matic  
   solution date      2021-May-04 12:29:59  

Additional Information
 Earth MOID = 1.86467 au 
 Jupiter MOID = 1.67697 au 
 T_jup = 3.173 
[ show covariance matrix ]

Ephemeris | Orbit Diagram | Orbital Elements | Mission Design | Physical Parameters | Discovery Circumstances | Close-Approach Data ]

Physical Parameter Table
Parameter Symbol Value Units Sigma Reference Notes
absolute magnitude H 16.35   n/a MPCxxxxx  

385926 (2006 TE116)          Discovered 2006-Oct-02 by Becker, A. C. at Apache Point
Reference: Last Updated: 2014-02-19

[ show close-approach data ]
Ephemeris | Orbit Diagram | Orbital Elements | Mission Design | Physical Parameters | Discovery Circumstances | Close-Approach Data ]
ABOUT SSD CREDITS/AWARDS PRIVACY/COPYRIGHT GLOSSARY LINKS
FirstGov 2021-Jun-18 07:18 UT
(server date/time)  
NASA Home Page
Site Manager:   Ryan S. Park
Webmaster  Alan B. Chamberlin